DateTimeUTC,F1_A11,F1_S11,BsB_S11,BsG_S11,BsR_S11,BbsB_S11,BbsG_S11,BbsR_S11,BaB_A11,BaG_A11,BaR_A11,Tu_S11,T_S11,Uu_S11,U_S11,P_S11,T1_A11
2021-06-24T18:00:00Z,00000200,20000000,,,,,,,0000.21,-000.12,0000.31,20.0,26.7,08.8,05.9,0670.5,31.3
2021-06-24T18:01:00Z,00000200,20000000,,,,,,,0000.20,0000.00,-000.15,20.0,26.7,08.8,05.9,0670.5,31.3
2021-06-24T18:02:00Z,00000200,20000000,,,,,,,0000.37,-000.10,0000.10,20.0,26.7,08.8,05.9,0670.5,31.3
2021-06-24T18:03:00Z,00000200,60000000,,,,,,,-000.30,0000.39,0000.16,20.0,26.7,08.8,05.9,0670.5,31.3
2021-06-24T18:04:00Z,00000200,40000000,-000.12,0000.39,0000.49,0000.93,0000.19,0000.10,0000.19,0000.23,0000.38,20.2,26.5,08.6,05.9,0671.4,31.3
2021-06-24T18:05:00Z,00000200,00000000,-000.07,0000.33,0000.36,0000.23,0000.18,-000.07,0000.07,-000.26,-000.12,20.2,26.5,08.9,06.1,0671.5,31.3
2021-06-24T18:06:00Z,00000200,00000000,0001.18,0000.39,0000.09,0000.37,0000.24,0000.11,0000.26,0000.53,0000.45,20.2,26.5,08.8,06.1,0671.4,31.3
2021-06-24T18:07:00Z,00000200,00000000,0000.13,0000.36,0000.22,0000.38,0000.17,0000.26,0000.16,-000.04,-000.23,20.3,26.5,08.9,06.1,0671.4,31.3
2021-06-24T18:08:00Z,00000200,00000000,-000.21,0000.21,0000.26,0000.24,0000.11,0000.19,0000.40,0000.39,0000.06,20.3,26.5,08.9,06.1,0671.4,31.3
2021-06-24T18:09:00Z,00000200,00000000,0000.34,0000.18,0000.34,0000.79,0000.26,0000.31,0000.08,0000.20,0000.21,20.3,26.5,09.0,06.2,0671.4,31.3
2021-06-24T18:10:00Z,00000200,00000000,0000.50,0000.11,0000.58,0000.35,0000.15,0000.22,0000.24,-000.06,-000.02,20.4,26.5,09.0,06.2,0671.4,31.3
2021-06-24T18:11:00Z,00000200,00000000,-000.15,0000.62,0000.48,0000.33,-000.01,-000.06,0000.21,-000.08,0000.38,20.4,26.6,09.1,06.3,0671.4,31.3
2021-06-24T18:12:00Z,00000200,00000000,0000.57,0000.26,0000.61,0000.36,0000.10,0000.53,-000.27,0000.39,-000.02,20.5,26.6,08.9,06.1,0671.4,31.3
2021-06-24T18:13:00Z,00000200,00000000,0000.41,0000.54,0000.28,0000.53,0000.23,0000.28,0000.20,0000.15,0000.11,20.5,26.6,08.9,06.1,0671.4,31.3
2021-06-24T18:14:00Z,00000200,00000000,0000.74,0000.60,0000.32,0000.26,0000.17,0000.18,0000.18,0000.03,-000.09,20.5,26.6,08.8,06.1,0671.4,31.3
2021-06-24T18:15:00Z,00000200,00000000,0000.12,0000.48,0000.48,0000.55,0000.14,0000.24,0000.05,0000.01,0000.37,20.5,26.6,08.9,06.2,0671.4,31.3
2021-06-24T18:16:00Z,00000200,00000000,0000.25,0000.22,0000.31,0000.47,0000.32,0000.21,0000.19,0000.38,0000.02,20.5,26.6,08.8,06.1,0671.4,31.3
2021-06-24T18:17:00Z,00000200,00000000,0000.18,0000.38,0000.45,0000.17,0000.05,-000.15,0000.25,0000.22,-000.05,20.5,26.6,08.9,06.1,0671.4,31.3
2021-06-24T18:18:00Z,00000200,00000000,0000.31,0000.20,0000.54,0000.68,0000.29,0000.25,-000.02,0000.12,-000.03,20.6,26.6,08.8,06.1,0671.3,31.3
2021-06-24T18:19:00Z,00000200,00000000,-000.12,0000.17,0000.47,0000.28,0000.26,0000.24,-000.03,-000.23,0000.44,20.6,26.6,08.8,06.1,0671.3,31.3
2021-06-24T18:20:00Z,00000200,00000000,0000.16,0000.48,0000.37,0000.89,0000.13,0000.50,0000.39,0000.48,-000.04,20.6,26.7,08.8,06.1,0671.3,31.3
2021-06-24T18:21:00Z,00000200,00000000,0000.41,0000.18,0000.18,0000.38,0000.21,0000.39,-000.07,0000.01,0000.13,20.6,26.7,08.7,06.1,0671.3,31.3
2021-06-24T18:22:00Z,00000200,00000000,0000.41,0000.52,0000.28,0000.20,0000.37,0000.32,0000.07,0000.19,-000.01,20.6,26.7,08.8,06.1,0671.3,31.3
2021-06-24T18:23:00Z,00000200,00000000,0000.15,0000.24,0000.16,0000.14,-000.19,-000.13,0000.37,0000.09,0000.02,20.7,26.7,08.8,06.1,0671.3,31.3
2021-06-24T18:24:00Z,00000200,00000000,-000.16,0000.22,0000.34,-000.14,0000.34,0000.05,0000.08,-000.01,0000.16,20.7,26.7,08.6,06.0,0671.3,31.3
2021-06-24T18:25:00Z,00000200,00000000,0000.27,0000.59,0000.47,0000.29,0000.06,0000.18,0000.20,0000.13,0000.06,20.7,26.7,08.7,06.0,0671.2,31.3
2021-06-24T18:26:00Z,00000200,00000000,0000.15,0000.22,0000.38,0000.41,0000.28,0000.39,-000.02,0000.23,0000.20,20.7,26.7,08.6,06.0,0671.2,31.3
2021-06-24T18:27:00Z,00000200,00000000,0000.32,0000.23,0000.52,0000.45,-000.18,0000.70,0000.33,0000.19,0000.03,20.8,26.8,08.7,06.1,0671.2,31.3
2021-06-24T18:28:00Z,00000200,00000000,-000.30,0000.25,0000.30,0000.42,0000.41,0000.18,0000.05,0000.09,0000.12,20.8,26.8,08.8,06.2,0671.2,31.3
2021-06-24T18:29:00Z,00000200,00000000,0000.35,0000.47,0000.78,-000.16,0000.07,0000.39,0000.19,0000.38,0000.06,20.8,26.8,08.7,06.1,0671.2,31.3
2021-06-24T18:30:00Z,00000200,00000000,0000.22,0000.47,0000.60,0000.37,-000.20,0000.43,-000.09,-000.24,-000.04,20.8,26.8,08.8,06.1,0671.2,31.3
2021-06-24T18:31:00Z,00000200,00000000,0000.29,0000.15,0000.12,0000.54,-000.10,0000.43,0000.39,-000.13,0000.43,20.8,26.8,08.6,06.0,0671.2,31.3
2021-06-24T18:32:00Z,00000200,00000000,0000.14,-000.05,0000.28,0000.97,0000.07,-000.19,-000.04,0000.39,-000.18,20.8,26.8,08.6,06.0,0671.2,31.3
2021-06-24T18:33:00Z,00000200,00000000,0000.24,0000.34,-000.26,0000.23,0000.02,-000.23,0000.15,0000.16,0000.18,20.8,26.8,08.6,06.0,0671.2,31.3
2021-06-24T18:34:00Z,00000200,00000000,-000.26,0000.14,0000.36,0000.64,0000.00,0000.28,0000.16,0000.02,-000.09,20.8,26.8,08.7,06.1,0671.2,31.3
2021-06-24T18:35:00Z,00000200,00000000,0000.44,0000.20,0000.40,0000.03,-000.00,-000.11,0000.15,-000.01,0000.13,20.8,26.8,08.7,06.1,0671.2,31.3
2021-06-24T18:36:00Z,00000200,00000000,0000.09,0000.30,0000.43,0000.68,0000.24,0000.57,0000.21,0000.13,0000.10,20.8,26.8,08.9,06.1,0671.1,31.3
2021-06-24T18:37:00Z,00000200,00000000,0001.01,0000.21,0000.41,0000.84,0000.11,0000.20,-000.10,0000.07,0000.30,20.8,26.8,08.8,06.1,0671.1,31.3
2021-06-24T18:38:00Z,00000200,00000000,0000.43,0000.11,0000.19,0001.06,-000.03,-000.00,0000.09,0000.26,-000.08,20.8,26.8,08.8,06.1,0671.1,31.3
2021-06-24T18:39:00Z,00000200,00000000,0000.17,0000.40,0000.25,0000.28,0000.05,0000.12,0000.26,0000.24,0000.17,20.8,26.8,08.8,06.1,0671.1,31.3
2021-06-24T18:40:00Z,00000200,00000000,-000.15,0000.38,0000.23,0000.50,0000.46,-000.08,0000.13,-000.02,0000.09,20.8,26.8,08.9,06.2,0671.1,31.3
2021-06-24T18:41:00Z,00000200,00000000,0000.65,0000.17,0000.09,0000.51,-000.06,0000.26,0000.00,0000.23,0000.10,20.8,26.8,08.9,06.2,0671.1,31.3
2021-06-24T18:42:00Z,00000200,00000000,0000.16,0000.41,0000.68,-000.10,0000.22,0000.25,-000.06,-000.20,-000.13,20.7,26.8,08.9,06.2,0671.1,31.3
2021-06-24T18:43:00Z,00000200,00000000,-000.26,0000.34,0000.28,0000.28,0000.09,0000.15,0000.46,0000.41,0000.47,20.8,26.8,08.9,06.2,0671.1,31.3
2021-06-24T18:44:00Z,00000200,00000000,0000.64,0000.61,0000.26,0000.40,0000.15,0000.13,-000.17,-000.21,-000.21,20.8,26.8,08.7,06.0,0671.0,31.3
2021-06-24T18:45:00Z,00000200,00000000,0000.73,0000.44,0000.05,0000.51,-000.19,0000.02,0000.10,0000.20,0000.15,20.8,26.9,08.9,06.2,0671.0,31.4
2021-06-24T18:46:00Z,00000200,00000000,0000.24,0000.64,-000.04,0000.56,-000.11,0000.09,0000.21,0000.21,-000.04,20.8,26.9,08.9,06.2,0671.0,31.4
2021-06-24T18:47:00Z,00000200,00000000,-000.20,0000.26,0000.26,0000.73,0000.09,-000.03,0000.39,0000.14,0000.22,20.8,26.9,08.9,06.2,0671.0,31.4
2021-06-24T18:48:00Z,00000200,00000000,0000.03,0000.47,0000.17,0000.12,0000.06,0000.14,-000.26,-000.18,0000.08,20.8,26.9,08.6,06.0,0671.0,31.4
2021-06-24T18:49:00Z,00000200,00000000,0000.57,0000.44,0000.35,0000.24,0000.22,0000.15,-000.07,0000.21,0000.06,20.9,26.9,08.4,05.9,0671.0,31.4
2021-06-24T18:50:00Z,00000200,00000000,0000.19,0000.18,0000.06,0000.11,0000.15,-000.03,0000.34,-000.19,-000.10,20.9,26.9,08.7,06.0,0670.9,31.4
2021-06-24T18:51:00Z,00000200,00000000,0000.07,0000.39,0000.52,0000.34,-000.02,0000.28,-000.01,0000.40,0000.06,20.9,26.9,08.5,05.9,0670.9,31.4
2021-06-24T18:52:00Z,00000200,00000000,0000.72,0000.02,0000.09,0000.50,0000.25,0000.23,0000.06,-000.13,0000.06,20.9,27.0,08.4,05.8,0670.9,31.4
2021-06-24T18:53:00Z,00000200,00000000,0000.15,0000.20,0000.50,-000.06,0000.08,0000.22,-000.02,0000.18,-000.07,20.9,27.0,08.3,05.8,0670.9,31.4
2021-06-24T18:54:00Z,00000200,00000000,-000.06,0000.30,0000.34,0000.01,0000.41,0000.26,0000.19,0000.16,0000.27,20.9,27.0,08.4,05.8,0670.9,31.4
2021-06-24T18:55:00Z,00000200,00000000,0000.12,0000.17,0000.14,0000.31,-000.10,0000.17,0000.26,0000.16,0000.10,21.0,27.0,08.2,05.7,0670.9,31.4
2021-06-24T18:56:00Z,00000200,00000000,-000.38,0000.34,0000.26,0000.42,-000.01,0000.03,0000.03,0000.09,-000.22,21.0,27.0,08.3,05.8,0670.9,31.4
2021-06-24T18:57:00Z,00000200,40000000,,,,,,,0000.07,0000.24,0000.48,21.0,27.0,08.2,05.7,0670.8,31.4
2021-06-24T18:58:00Z,00000200,60000000,,,,,,,-000.16,-000.11,-000.07,20.8,27.1,08.4,05.7,0669.9,31.4
2021-06-24T18:59:00Z,00000200,20000000,,,,,,,0000.34,-000.27,-000.03,20.8,27.2,08.4,05.7,0669.8,31.4
